Regional Weather Roundup
Issued by NWS

Home | Current Version | Previous Version | Graphics & Text | Print | Product List | Glossary On
Versions: 1 2 3 4 5 6 7 8 9 10 11 12 13 14 15 16 17 18 19 20 21 22 23 24 25 26 27 28 29 30 31 32 33 34 35 36 37 38 39 40 41 42 43 44 45 46 47 48 49 50
000
ASUS43 KLOT 300500
RWRIL

ILLINOIS REGIONAL WEATHER ROUNDUP
NATIONAL WEATHER SERVICE CHICAGO/ROMEOVILLE IL
1200 AM CDT SAT AUG 30 2014

NOTE: "FAIR" INDICATES FEW OR NO CLOUDS BELOW 12,000 FEET WITH NO
SIGNIFICANT WEATHER AND/OR OBSTRUCTIONS TO VISIBILITY.

* THESE STATIONS ARE NOT UNDER NWS QUALITY CONTROL. THEY ALSO MAY NOT
  REPORT WEATHER SUCH AS PRECIPITATION OR FOG.

ILZ001-002-007-009-015-016-024-300600-
NORTHWEST ILLINOIS

CITY           SKY/WX    TMP DP  RH WIND       PRES   REMARKS
MOLINE         CLOUDY    71  68  90 S8        29.82S
STERLING*      CLOUDY    72  66  83 S3        29.84S
$$

ILZ003-004-008-010-011-017-018-300600-
NORTH CENTRAL ILLINOIS

CITY           SKY/WX    TMP DP  RH WIND       PRES   REMARKS
ROCKFORD       LGT RAIN  73  68  84 S12       29.85S
$$

ILZ005-006-012>014-019>023-300600-
NORTHEAST ILLINOIS

CITY           SKY/WX    TMP DP  RH WIND       PRES   REMARKS
CHICAGO-OHARE  CLOUDY    75  67  76 S12       29.86F
CHICAGO-MIDWAY MOCLDY    77  69  76 S12       29.88S
AURORA         CLOUDY    75  69  81 S9        29.87S
WAUKEGAN       MOCLDY    74  69  85 SE7       29.85F
DUPAGE AIRPORT CLOUDY    75  69  81 S12       29.87S
WHEELING       MOCLDY    78  69  73 S14       29.87F HX  80
NORTHERLY ISL    N/A     75  67  76 S12         N/A
$$

LMZ740>746-300600-
SOUTHERN LAKE MICHIGAN

STATION/POSITION SKY/WX   TEMP    WIND        PRES    VSBY  WAVE
                          AIR SEA DIR/SP/G                  HT/PER
                          (F)     (DEG/KT/KT) (MB)    (MI)  (FT/S)
SOUTHERN BUOY              73 69  160/ 17/ 21 1011.8F
WAUKEGAN HARBOR            73     160/ 18/ 20   N/A
HARRISON CRIB              73     160/ 16/ 22   N/A
BURNHAM HARBOR             75     170/ 11/ 14   N/A
CALUMET HARBOR             74     160/  7/ 11 1011.1F
MICHIGAN CITY              72     130/ 12/ 17   N/A
MICHIGAN CITY 6N           73 72  160/ 14/ 17   N/A           1/ 2
ST. JOSEPH                 71 70  150/ 14/ 17   N/A           2/ 3
$$

ILZ025>027-034>036-040-047-049-050-058-095>099-300600-
WEST-CENTRAL ILLINOIS

CITY           SKY/WX    TMP DP  RH WIND       PRES   REMARKS
QUINCY         PTCLDY    72  69  90 S9        29.87S
MACOMB*        CLOUDY    71  70  97 S7        29.87F
$$

ILZ028>032-037-038-041>044-048-051>054-059>061-300600-
CENTRAL ILLINOIS

CITY           SKY/WX    TMP DP  RH WIND       PRES   REMARKS
DECATUR        CLOUDY    78  69  73 S12       29.92S HX  80
PEORIA         CLOUDY    73  69  87 S7        29.86F
SPRINGFIELD    CLOUDY    75  70  84 S10       29.89S
TAYLORVILLE    NOT AVBL
$$

ILZ033-039-045-046-055>057-062-063-300600-
EAST-CENTRAL ILLINOIS

CITY           SKY/WX    TMP DP  RH WIND       PRES   REMARKS
CHAMPAIGN      MOCLDY    75  70  84 S10       29.93S
MATTOON        MOCLDY    76  68  76 S6        29.93F
$$

ILZ079-100>102-300600-
SOUTHWEST ILLINOIS

CITY           SKY/WX    TMP DP  RH WIND       PRES   REMARKS
BELLEVILLE     CLOUDY    76  70  80 VRB7      29.93R
CAHOKIA*       CLOUDY    79  68  69 SW8G22    29.92S HX  81
$$

ILZ064>066-069>071-074>076-080>082-084>086-088>090-092>094-300600-
SOUTH-CENTRAL ILLINOIS

CITY           SKY/WX    TMP DP  RH WIND       PRES   REMARKS
CARBONDALE     CLOUDY    74  68  81 S13       29.97F
MT. VERNON     MOCLDY    75  66  73 S13       29.97R
$$

ILZ067-068-072-073-078-083-087-091-300600-
SOUTHEAST ILLINOIS

CITY           SKY/WX    TMP DP  RH WIND       PRES   REMARKS
LAWRENCEVILLE  MOCLDY    74  70  87 S8        29.97S
ROBINSON*      PTCLDY    75  71  86 S7        29.97S
$$

ABBREVIATIONS USED IN REMARKS
   TC - TEMPERATURE IN CELSIUS
  WCI - WIND CHILL INDEX
   HX - HEAT INDEX
  VSB - VISIBILITY
$$




USA.gov is the U.S. government's official web portal to all federal, state and local government web resources and services.